QPF
0.00 0.00 0.00 0.00 0.01 0.02 0.03 0.02 0.01 0.01 0.02 0.02 0.00 0.00 0.00 0.01 0.02 0.04 0.04 0.03 0.02 0.02 0.05 0.10 0.12 0.10 0.08 0.09 0.08 0.09 0.09 0.08 0.06 0.05 0.05 0.05 0.04 0.05 0.05 0.04 0.04 0.04 0.03 0.03 0.05 0.07 0.06 0.07 0.06
0.01 0.00 0.00 0.01 0.01 0.02 0.03 0.01 0.01 0.01 0.01 0.01 0.00 0.01 0.01 0.00 0.01 0.01 0.02 0.02 0.02 0.02 0.04 0.06 0.10 0.08 0.07 0.07 0.08 0.09 0.08 0.06 0.05 0.04 0.05 0.05 0.05 0.05 0.04 0.03 0.04 0.04 0.03 0.03 0.04 0.07 0.07 0.07 0.06
0.01 0.01 0.01 0.01 0.01 0.02 0.02 0.02 0.01 0.01 0.01 0.01 0.00 0.01 0.01 0.02 0.01 0.02 0.03 0.03 0.03 0.03 0.05 0.07 0.08 0.08 0.09 0.09 0.10 0.08 0.06 0.06 0.05 0.05 0.06 0.07 0.06 0.05 0.04 0.04 0.04 0.04 0.03 0.04 0.05 0.08 0.09 0.07 0.05
0.00 0.01 0.00 0.01 0.02 0.01 0.01 0.01 0.01 0.02 0.03 0.02 0.01 0.01 0.01 0.01 0.02 0.03 0.04 0.04 0.02 0.03 0.06 0.08 0.08 0.08 0.07 0.09 0.10 0.09 0.08 0.08 0.06 0.05 0.06 0.06 0.05 0.05 0.05 0.05 0.05 0.05 0.04 0.05 0.08 0.10 0.10 0.08 0.06
0.00 0.00 0.01 0.01 0.01 0.01 0.01 0.01 0.01 0.02 0.02 0.02 0.02 0.02 0.02 0.01 0.01 0.02 0.03 0.05 0.04 0.04 0.06 0.08 0.08 0.07 0.07 0.09 0.11 0.11 0.09 0.09 0.08 0.07 0.05 0.04 0.04 0.04 0.04 0.04 0.04 0.05 0.06 0.07 0.07 0.09 0.11 0.09 0.06
0.01 0.01 0.01 0.01 0.01 0.01 0.01 0.01 0.01 0.01 0.02 0.03 0.02 0.01 0.03 0.01 0.00 0.01 0.03 0.04 0.04 0.05 0.05 0.07 0.08 0.06 0.06 0.07 0.08 0.08 0.07 0.08 0.08 0.07 0.07 0.06 0.05 0.05 0.06 0.05 0.05 0.06 0.07 0.07 0.08 0.09 0.12 0.10 0.09
0.01 0.01 0.01 0.01 0.01 0.01 0.01 0.00 0.00 0.01 0.02 0.02 0.01 0.01 0.02 0.01 0.00 0.01 0.04 0.04 0.02 0.02 0.04 0.06 0.08 0.07 0.06 0.05 0.06 0.06 0.06 0.06 0.08 0.07 0.06 0.06 0.05 0.05 0.05 0.05 0.06 0.06 0.07 0.10 0.09 0.09 0.13 0.12 0.08
0.01 0.01 0.01 0.00 0.01 0.01 0.01 0.00 0.00 0.02 0.02 0.01 0.00 0.01 0.01 0.01 0.00 0.00 0.02 0.02 0.02 0.03 0.05 0.07 0.06 0.08 0.08 0.06 0.06 0.07 0.07 0.06 0.08 0.07 0.06 0.05 0.05 0.05 0.04 0.05 0.06 0.06 0.08 0.10 0.08 0.08 0.10 0.12 0.09
0.01 0.02 0.01 0.00 0.00 0.01 0.01 0.01 0.01 0.01 0.02 0.01 0.01 0.01 0.01 0.01 0.00 0.01 0.01 0.02 0.02 0.03 0.06 0.06 0.04 0.05 0.07 0.06 0.06 0.07 0.10 0.09 0.09 0.10 0.11 0.09 0.08 0.07 0.06 0.05 0.07 0.09 0.11 0.12 0.10 0.09 0.08 0.10 0.08
0.01 0.02 0.00 0.00 0.00 0.00 0.01 0.01 0.01 0.02 0.02 0.01 0.01 0.01 0.00 0.01 0.01 0.01 0.01 0.01 0.02 0.05 0.07 0.06 0.05 0.05 0.05 0.03 0.03 0.05 0.07 0.09 0.10 0.14 0.14 0.12 0.09 0.10 0.07 0.06 0.08 0.11 0.13 0.15 0.17 0.16 0.10 0.08 0.08
0.01 0.01 0.00 0.00 0.00 0.00 0.01 0.02 0.01 0.01 0.03 0.03 0.02 0.02 0.01 0.01 0.01 0.01 0.01 0.00 0.01 0.03 0.05 0.05 0.05 0.04 0.04 0.04 0.03 0.05 0.06 0.09 0.10 0.10 0.13 0.13 0.13 0.12 0.09 0.07 0.07 0.09 0.09 0.11 0.11 0.14 0.12 0.10 0.12
0.00 0.00 0.00 0.00 0.00 0.00 0.01 0.02 0.02 0.01 0.02 0.03 0.03 0.02 0.02 0.02 0.01 0.00 0.01 0.00 0.01 0.02 0.03 0.03 0.04 0.04 0.04 0.05 0.05 0.06 0.07 0.10 0.10 0.10 0.11 0.08 0.08 0.08 0.07 0.07 0.09 0.09 0.09 0.09 0.10 0.15 0.17 0.16 0.14
0.00 0.00 0.00 0.00 0.00 0.00 0.00 0.01 0.01 0.01 0.01 0.01 0.01 0.02 0.01 0.01 0.01 0.00 0.00 0.00 0.00 0.02 0.02 0.02 0.03 0.03 0.03 0.05 0.07 0.05 0.06 0.12 0.11 0.10 0.10 0.08 0.07 0.06 0.07 0.07 0.08 0.10 0.10 0.08 0.10 0.15 0.17 0.15 0.16
0.00 0.00 0.00 0.00 0.00 0.00 0.00 0.01 0.01 0.01 0.01 0.00 0.00 0.01 0.01 0.01 0.00 0.00 0.00 0.00 0.01 0.01 0.01 0.01 0.01 0.02 0.02 0.04 0.07 0.07 0.10 0.19 0.13 0.09 0.08 0.06 0.06 0.07 0.08 0.09 0.09 0.10 0.13 0.14 0.12 0.13 0.18 0.15 0.15
0.00 0.00 0.00 0.00 0.00 0.00 0.00 0.01 0.02 0.01 0.00 0.00 0.00 0.00 0.01 0.00 0.00 0.00 0.00 0.01 0.01 0.01 0.01 0.02 0.02 0.02 0.02 0.03 0.06 0.08 0.13 0.22 0.10 0.06 0.05 0.04 0.04 0.06 0.08 0.08 0.09 0.09 0.12 0.15 0.15 0.14 0.18 0.17 0.12
0.00 0.00 0.00 0.00 0.00 0.00 0.01 0.02 0.01 0.00 0.01 0.01 0.00 0.01 0.01 0.00 0.00 0.00 0.00 0.00 0.00 0.01 0.01 0.01 0.02 0.02 0.02 0.04 0.04 0.04 0.07 0.12 0.07 0.05 0.05 0.03 0.03 0.04 0.05 0.04 0.04 0.06 0.07 0.09 0.11 0.11 0.14 0.16 0.14
0.00 0.00 0.00 0.00 0.00 0.00 0.00 0.01 0.01 0.00 0.01 0.01 0.01 0.00 0.01 0.01 0.00 0.00 0.00 0.00 0.00 0.00 0.00 0.01 0.02 0.02 0.02 0.03 0.03 0.04 0.07 0.09 0.08 0.05 0.05 0.04 0.04 0.04 0.05 0.05 0.05 0.05 0.05 0.06 0.05 0.07 0.09 0.10 0.14
0.00 0.00 0.00 0.00 0.00 0.00 0.00 0.00 0.00 0.00 0.00 0.01 0.01 0.00 0.00 0.00 0.00 0.00 0.00 0.00 0.00 0.00 0.00 0.01 0.02 0.01 0.01 0.02 0.03 0.05 0.08 0.08 0.07 0.06 0.07 0.06 0.04 0.03 0.05 0.05 0.05 0.07 0.07 0.08 0.08 0.08 0.08 0.08 0.11
0.00 0.00 0.00 0.00 0.00 0.00 0.00 0.00 0.00 0.00 0.00 0.00 0.00 0.00 0.00 0.00 0.00 0.00 0.00 0.00 0.01 0.01 0.00 0.01 0.02 0.01 0.02 0.02 0.04 0.06 0.06 0.05 0.05 0.06 0.06 0.05 0.04 0.04 0.05 0.04 0.05 0.07 0.08 0.09 0.08 0.07 0.06 0.07 0.11
0.00 0.00 0.00 0.00 0.00 0.00 0.00 0.00 0.00 0.00 0.00 0.00 0.00 0.00 0.00 0.00 0.00 0.00 0.00 0.00 0.00 0.01 0.01 0.01 0.01 0.01 0.01 0.02 0.02 0.03 0.04 0.05 0.05 0.05 0.05 0.04 0.04 0.05 0.07 0.08 0.07 0.08 0.08 0.09 0.08 0.07 0.07 0.07 0.11
0.00 0.00 0.00 0.00 0.00 0.00 0.00 0.01 0.01 0.00 0.00 0.00 0.00 0.00 0.00 0.00 0.00 0.00 0.00 0.00 0.00 0.00 0.01 0.01 0.01 0.02 0.02 0.02 0.02 0.02 0.03 0.06 0.07 0.06 0.05 0.04 0.04 0.04 0.05 0.08 0.07 0.07 0.07 0.06 0.07 0.08 0.09 0.09 0.10
0.00 0.00 0.00 0.00 0.00 0.00 0.00 0.01 0.01 0.00 0.00 0.00 0.00 0.00 0.00 0.00 0.00 0.01 0.01 0.01 0.00 0.00 0.01 0.01 0.02 0.02 0.03 0.03 0.04 0.04 0.06 0.07 0.08 0.07 0.06 0.05 0.05 0.05 0.04 0.05 0.06 0.06 0.05 0.06 0.08 0.07 0.09 0.11 0.11
0.00 0.00 0.00 0.00 0.00 0.00 0.00 0.00 0.00 0.00 0.00 0.00 0.00 0.00 0.00 0.00 0.01 0.01 0.01 0.01 0.00 0.00 0.00 0.01 0.01 0.01 0.01 0.02 0.05 0.07 0.07 0.07 0.07 0.05 0.06 0.07 0.06 0.05 0.04 0.04 0.04 0.05 0.05 0.05 0.07 0.09 0.09 0.09 0.10
0.00 0.00 0.00 0.00 0.01 0.01 0.00 0.00 0.00 0.00 0.00 0.00 0.00 0.00 0.00 0.00 0.00 0.00 0.00 0.00 0.00 0.00 0.00 0.00 0.01 0.01 0.01 0.01 0.02 0.04 0.05 0.06 0.06 0.06 0.08 0.07 0.05 0.05 0.04 0.04 0.05 0.07 0.08 0.13 0.10 0.10 0.10 0.10 0.10
0.00 0.01 0.01 0.01 0.01 0.01 0.00 0.00 0.00 0.00 0.00 0.00 0.00 0.00 0.00 0.00 0.00 0.00 0.00 0.00 0.00 0.00 0.00 0.00 0.00 0.01 0.01 0.01 0.01 0.02 0.02 0.03 0.04 0.03 0.03 0.03 0.03 0.03 0.03 0.04 0.06 0.07 0.08 0.12 0.13 0.10 0.08 0.09 0.10
0.00 0.01 0.01 0.01 0.01 0.00 0.00 0.00 0.00 0.00 0.00 0.00 0.00 0.00 0.00 0.00 0.00 0.01 0.00 0.00 0.00 0.00 0.00 0.00 0.00 0.00 0.00 0.01 0.01 0.00 0.01 0.01 0.01 0.01 0.01 0.02 0.02 0.02 0.03 0.04 0.05 0.05 0.05 0.05 0.07 0.07 0.06 0.07 0.08
0.00 0.00 0.00 0.00 0.00 0.01 0.00 0.00 0.00 0.00 0.00 0.00 0.00 0.00 0.00 0.00 0.00 0.00 0.00 0.00 0.00 0.01 0.00 0.00 0.00 0.00 0.00 0.00 0.00 0.00 0.00 0.00 0.00 0.00 0.01 0.01 0.01 0.01 0.02 0.02 0.03 0.03 0.03 0.05 0.05 0.05 0.05 0.07 0.08
0.00 0.00 0.00 0.01 0.01 0.01 0.00 0.00 0.01 0.00 0.00 0.00 0.00 0.00 0.00 0.00 0.00 0.00 0.00 0.00 0.00 0.00 0.00 0.00 0.00 0.00 0.00 0.00 0.01 0.01 0.01 0.00 0.00 0.00 0.00 0.00 0.01 0.01 0.01 0.01 0.02 0.02 0.02 0.03 0.03 0.06 0.08 0.09 0.10
0.00 0.00 0.00 0.01 0.00 0.00 0.01 0.01 0.00 0.00 0.00 0.00 0.00 0.00 0.00 0.00 0.00 0.00 0.00 0.00 0.00 0.00 0.00 0.00 0.00 0.00 0.00 0.00 0.01 0.01 0.01 0.01 0.00 0.00 0.00 0.00 0.01 0.01 0.01 0.02 0.02 0.03 0.03 0.02 0.02 0.03 0.06 0.08 0.09
0.00 0.00 0.00 0.01 0.01 0.00 0.01 0.01 0.00 0.00 0.00 0.01 0.00 0.00 0.00 0.00 0.00 0.00 0.00 0.00 0.00 0.00 0.01 0.00 0.00 0.01 0.01 0.01 0.01 0.01 0.01 0.01 0.01 0.01 0.00 0.00 0.01 0.01 0.01 0.02 0.02 0.03 0.03 0.03 0.03 0.03 0.04 0.05 0.05
MSLP
1006.99 1007.39 1007.87 1008.34 1008.70 1008.89 1008.88 1008.71 1008.43 1008.16 1007.98 1007.93 1008.03 1008.21 1008.38 1008.44 1008.28 1007.87 1007.21 1006.39 1005.52 1004.72 1004.12 1003.77 1003.69 1003.81 1004.04 1004.29 1004.47 1004.55 1004.52 1004.44 1004.39 1004.42 1004.58 1004.87 1005.26 1005.68 1006.06 1006.36 1006.55 1006.67 1006.74 1006.84 1007.02 1007.31 1007.70 1008.17 1008.66
1006.91 1007.35 1007.86 1008.35 1008.71 1008.88 1008.86 1008.66 1008.36 1008.07 1007.86 1007.79 1007.85 1008.00 1008.14 1008.17 1007.98 1007.55 1006.89 1006.09 1005.26 1004.53 1004.00 1003.73 1003.72 1003.90 1004.16 1004.40 1004.54 1004.54 1004.43 1004.25 1004.09 1004.04 1004.14 1004.40 1004.78 1005.21 1005.63 1005.96 1006.19 1006.32 1006.41 1006.52 1006.69 1006.98 1007.38 1007.86 1008.37
1006.97 1007.44 1007.95 1008.41 1008.74 1008.89 1008.83 1008.62 1008.31 1008.01 1007.80 1007.71 1007.75 1007.85 1007.94 1007.90 1007.66 1007.19 1006.51 1005.72 1004.94 1004.27 1003.83 1003.64 1003.70 1003.93 1004.20 1004.41 1004.48 1004.38 1004.14 1003.83 1003.56 1003.41 1003.44 1003.66 1004.04 1004.51 1004.99 1005.40 1005.70 1005.91 1006.05 1006.19 1006.38 1006.68 1007.09 1007.58 1008.12
1007.17 1007.63 1008.11 1008.52 1008.80 1008.90 1008.82 1008.60 1008.30 1008.02 1007.82 1007.74 1007.76 1007.82 1007.84 1007.72 1007.41 1006.88 1006.18 1005.40 1004.66 1004.06 1003.69 1003.58 1003.69 1003.92 1004.17 1004.31 1004.27 1004.03 1003.64 1003.18 1002.77 1002.51 1002.48 1002.68 1003.09 1003.63 1004.20 1004.72 1005.14 1005.45 1005.68 1005.89 1006.12 1006.44 1006.86 1007.36 1007.91
1007.43 1007.87 1008.29 1008.64 1008.86 1008.91 1008.81 1008.60 1008.34 1008.10 1007.94 1007.88 1007.90 1007.92 1007.88 1007.70 1007.32 1006.74 1006.01 1005.23 1004.52 1003.98 1003.66 1003.59 1003.72 1003.92 1004.10 1004.12 1003.94 1003.53 1002.97 1002.35 1001.80 1001.45 1001.37 1001.58 1002.04 1002.66 1003.35 1004.01 1004.58 1005.02 1005.36 1005.64 1005.93 1006.27 1006.70 1007.19 1007.74
1007.70 1008.09 1008.46 1008.73 1008.89 1008.91 1008.80 1008.62 1008.42 1008.25 1008.16 1008.14 1008.17 1008.18 1008.10 1007.85 1007.41 1006.79 1006.05 1005.29 1004.60 1004.10 1003.82 1003.75 1003.85 1003.98 1004.04 1003.92 1003.56 1002.98 1002.24 1001.48 1000.82 1000.40 1000.30 1000.53 1001.05 1001.77 1002.58 1003.38 1004.08 1004.65 1005.10 1005.47 1005.81 1006.17 1006.58 1007.06 1007.58
1007.90 1008.24 1008.54 1008.76 1008.87 1008.87 1008.79 1008.67 1008.54 1008.46 1008.45 1008.49 1008.55 1008.56 1008.44 1008.16 1007.69 1007.05 1006.30 1005.56 1004.91 1004.43 1004.16 1004.08 1004.11 1004.14 1004.06 1003.77 1003.25 1002.50 1001.63 1000.75 1000.03 999.58 999.47 999.73 1000.31 1001.12 1002.03 1002.93 1003.74 1004.41 1004.94 1005.37 1005.74 1006.10 1006.49 1006.93 1007.39
1007.99 1008.29 1008.54 1008.71 1008.80 1008.82 1008.78 1008.73 1008.70 1008.72 1008.80 1008.90 1008.99 1009.00 1008.87 1008.57 1008.08 1007.44 1006.72 1006.01 1005.39 1004.94 1004.67 1004.55 1004.50 1004.42 1004.20 1003.77 1003.11 1002.24 1001.28 1000.35 999.60 999.15 999.06 999.36 999.98 1000.82 1001.78 1002.74 1003.60 1004.32 1004.89 1005.34 1005.71 1006.05 1006.40 1006.76 1007.15
1007.98 1008.25 1008.47 1008.62 1008.72 1008.77 1008.80 1008.84 1008.91 1009.02 1009.18 1009.33 1009.44 1009.46 1009.33 1009.02 1008.53 1007.91 1007.22 1006.56 1005.99 1005.56 1005.29 1005.13 1005.01 1004.83 1004.50 1003.96 1003.20 1002.28 1001.29 1000.37 999.64 999.23 999.18 999.49 1000.11 1000.95 1001.89 1002.82 1003.66 1004.37 1004.93 1005.36 1005.70 1006.00 1006.27 1006.55 1006.83
1007.93 1008.18 1008.39 1008.56 1008.69 1008.80 1008.90 1009.03 1009.19 1009.38 1009.59 1009.78 1009.90 1009.91 1009.76 1009.45 1008.97 1008.39 1007.75 1007.14 1006.62 1006.23 1005.96 1005.77 1005.59 1005.34 1004.93 1004.33 1003.55 1002.64 1001.69 1000.83 1000.18 999.82 999.81 1000.12 1000.71 1001.48 1002.33 1003.17 1003.92 1004.55 1005.04 1005.41 1005.70 1005.93 1006.12 1006.29 1006.45
1007.90 1008.16 1008.38 1008.59 1008.77 1008.95 1009.13 1009.33 1009.56 1009.80 1010.04 1010.23 1010.34 1010.33 1010.17 1009.85 1009.39 1008.84 1008.26 1007.71 1007.25 1006.88 1006.62 1006.42 1006.20 1005.90 1005.46 1004.86 1004.11 1003.26 1002.41 1001.67 1001.12 1000.84 1000.86 1001.15 1001.66 1002.31 1003.02 1003.70 1004.31 1004.81 1005.19 1005.48 1005.69 1005.84 1005.94 1006.00 1006.03
1007.97 1008.26 1008.52 1008.77 1009.02 1009.26 1009.51 1009.78 1010.05 1010.31 1010.55 1010.72 1010.80 1010.75 1010.56 1010.23 1009.79 1009.28 1008.75 1008.26 1007.84 1007.51 1007.26 1007.04 1006.80 1006.48 1006.05 1005.48 1004.80 1004.06 1003.35 1002.74 1002.31 1002.11 1002.15 1002.40 1002.81 1003.31 1003.84 1004.33 1004.75 1005.10 1005.36 1005.55 1005.67 1005.74 1005.76 1005.72 1005.62
1008.20 1008.53 1008.84 1009.15 1009.45 1009.75 1010.05 1010.35 1010.64 1010.90 1011.11 1011.25 1011.28 1011.18 1010.97 1010.63 1010.20 1009.72 1009.24 1008.79 1008.41 1008.10 1007.85 1007.63 1007.37 1007.05 1006.63 1006.12 1005.53 1004.92 1004.35 1003.88 1003.57 1003.44 1003.49 1003.68 1003.98 1004.32 1004.65 1004.95 1005.19 1005.37 1005.50 1005.59 1005.64 1005.64 1005.58 1005.45 1005.25
1008.60 1008.98 1009.34 1009.70 1010.04 1010.38 1010.71 1011.03 1011.32 1011.55 1011.73 1011.81 1011.80 1011.66 1011.42 1011.08 1010.66 1010.21 1009.77 1009.35 1008.99 1008.69 1008.43 1008.18 1007.90 1007.58 1007.18 1006.72 1006.23 1005.73 1005.29 1004.95 1004.74 1004.66 1004.71 1004.84 1005.02 1005.20 1005.36 1005.48 1005.55 1005.59 1005.61 1005.62 1005.60 1005.54 1005.42 1005.23 1004.95
1009.13 1009.55 1009.95 1010.34 1010.72 1011.08 1011.42 1011.73 1012.00 1012.21 1012.35 1012.40 1012.34 1012.19 1011.94 1011.60 1011.21 1010.78 1010.36 1009.96 1009.61 1009.29 1009.00 1008.72 1008.41 1008.07 1007.69 1007.27 1006.84 1006.44 1006.10 1005.85 1005.71 1005.67 1005.70 1005.77 1005.85 1005.91 1005.93 1005.90 1005.84 1005.77 1005.69 1005.63 1005.55 1005.45 1005.29 1005.05 1004.72
1009.71 1010.16 1010.58 1010.99 1011.38 1011.74 1012.08 1012.38 1012.63 1012.81 1012.92 1012.95 1012.88 1012.73 1012.49 1012.18 1011.82 1011.42 1011.02 1010.63 1010.26 1009.92 1009.59 1009.26 1008.91 1008.55 1008.16 1007.76 1007.38 1007.04 1006.77 1006.58 1006.48 1006.44 1006.45 1006.48 1006.48 1006.44 1006.36 1006.23 1006.07 1005.92 1005.78 1005.65 1005.53 1005.38 1005.19 1004.93 1004.58
1010.28 1010.72 1011.15 1011.55 1011.94 1012.29 1012.61 1012.89 1013.12 1013.28 1013.38 1013.41 1013.36 1013.23 1013.03 1012.77 1012.45 1012.10 1011.72 1011.34 1010.95 1010.57 1010.19 1009.81 1009.42 1009.03 1008.63 1008.24 1007.89 1007.58 1007.35 1007.18 1007.09 1007.05 1007.03 1007.01 1006.96 1006.86 1006.71 1006.52 1006.31 1006.09 1005.90 1005.72 1005.55 1005.36 1005.14 1004.86 1004.51
1010.75 1011.18 1011.58 1011.97 1012.34 1012.67 1012.97 1013.23 1013.43 1013.58 1013.68 1013.73 1013.71 1013.64 1013.50 1013.31 1013.06 1012.75 1012.40 1012.03 1011.63 1011.21 1010.79 1010.37 1009.95 1009.53 1009.13 1008.75 1008.41 1008.12 1007.90 1007.74 1007.64 1007.58 1007.53 1007.47 1007.38 1007.24 1007.06 1006.84 1006.59 1006.35 1006.10 1005.88 1005.65 1005.41 1005.15 1004.85 1004.50
1011.12 1011.50 1011.88 1012.24 1012.58 1012.89 1013.16 1013.38 1013.56 1013.70 1013.81 1013.88 1013.91 1013.90 1013.85 1013.73 1013.56 1013.31 1013.01 1012.65 1012.25 1011.82 1011.38 1010.93 1010.49 1010.06 1009.67 1009.30 1008.99 1008.72 1008.50 1008.34 1008.22 1008.13 1008.05 1007.95 1007.84 1007.68 1007.48 1007.24 1006.98 1006.71 1006.43 1006.14 1005.86 1005.56 1005.24 1004.91 1004.56
1011.37 1011.72 1012.06 1012.39 1012.70 1012.98 1013.21 1013.40 1013.55 1013.67 1013.77 1013.86 1013.94 1014.00 1014.03 1014.00 1013.91 1013.74 1013.49 1013.17 1012.78 1012.36 1011.91 1011.46 1011.03 1010.62 1010.25 1009.93 1009.64 1009.40 1009.19 1009.02 1008.88 1008.76 1008.64 1008.52 1008.38 1008.20 1008.00 1007.76 1007.49 1007.19 1006.87 1006.54 1006.18 1005.82 1005.44 1005.07 1004.71
1011.57 1011.88 1012.20 1012.51 1012.79 1013.03 1013.21 1013.35 1013.45 1013.53 1013.61 1013.70 1013.82 1013.93 1014.04 1014.11 1014.11 1014.02 1013.84 1013.56 1013.21 1012.81 1012.38 1011.96 1011.55 1011.19 1010.87 1010.60 1010.36 1010.16 1009.98 1009.81 1009.65 1009.49 1009.34 1009.18 1009.01 1008.82 1008.61 1008.37 1008.09 1007.78 1007.43 1007.05 1006.63 1006.20 1005.77 1005.34 1004.96
1011.75 1012.04 1012.36 1012.65 1012.92 1013.12 1013.25 1013.32 1013.35 1013.36 1013.40 1013.47 1013.59 1013.75 1013.92 1014.07 1014.16 1014.17 1014.06 1013.85 1013.55 1013.19 1012.80 1012.41 1012.06 1011.76 1011.50 1011.29 1011.12 1010.96 1010.81 1010.64 1010.47 1010.28 1010.09 1009.89 1009.68 1009.47 1009.25 1009.01 1008.74 1008.42 1008.06 1007.64 1007.19 1006.70 1006.22 1005.75 1005.33
1011.94 1012.26 1012.58 1012.89 1013.14 1013.30 1013.38 1013.37 1013.30 1013.23 1013.19 1013.22 1013.33 1013.51 1013.73 1013.96 1014.14 1014.23 1014.22 1014.08 1013.84 1013.53 1013.19 1012.85 1012.55 1012.30 1012.11 1011.97 1011.86 1011.74 1011.62 1011.47 1011.28 1011.06 1010.83 1010.58 1010.34 1010.11 1009.87 1009.63 1009.36 1009.05 1008.69 1008.28 1007.81 1007.30 1006.78 1006.28 1005.83
1012.16 1012.52 1012.88 1013.21 1013.46 1013.59 1013.60 1013.50 1013.33 1013.15 1013.03 1012.99 1013.07 1013.26 1013.53 1013.82 1014.09 1014.28 1014.36 1014.30 1014.13 1013.88 1013.58 1013.28 1013.02 1012.82 1012.68 1012.59 1012.53 1012.46 1012.36 1012.21 1012.01 1011.77 1011.49 1011.21 1010.93 1010.66 1010.41 1010.17 1009.92 1009.64 1009.30 1008.91 1008.46 1007.97 1007.45 1006.93 1006.46
1012.37 1012.79 1013.22 1013.58 1013.83 1013.92 1013.86 1013.67 1013.40 1013.12 1012.90 1012.79 1012.84 1013.04 1013.34 1013.71 1014.07 1014.36 1014.52 1014.55 1014.45 1014.25 1013.99 1013.72 1013.49 1013.32 1013.21 1013.15 1013.11 1013.07 1012.98 1012.84 1012.62 1012.35 1012.04 1011.72 1011.40 1011.11 1010.85 1010.62 1010.39 1010.14 1009.86 1009.52 1009.12 1008.67 1008.17 1007.67 1007.19
1012.51 1013.02 1013.51 1013.91 1014.15 1014.22 1014.09 1013.81 1013.44 1013.07 1012.77 1012.61 1012.64 1012.84 1013.20 1013.64 1014.09 1014.47 1014.73 1014.85 1014.82 1014.66 1014.44 1014.19 1013.96 1013.80 1013.69 1013.64 1013.61 1013.57 1013.49 1013.33 1013.11 1012.82 1012.48 1012.13 1011.78 1011.47 1011.21 1010.98 1010.78 1010.58 1010.35 1010.08 1009.76 1009.37 1008.93 1008.46 1007.99
1012.55 1013.14 1013.67 1014.09 1014.33 1014.36 1014.18 1013.83 1013.38 1012.94 1012.59 1012.40 1012.43 1012.66 1013.07 1013.59 1014.13 1014.61 1014.97 1015.17 1015.20 1015.10 1014.90 1014.66 1014.43 1014.25 1014.13 1014.06 1014.02 1013.97 1013.89 1013.73 1013.50 1013.20 1012.85 1012.48 1012.12 1011.80 1011.53 1011.31 1011.14 1010.98 1010.82 1010.62 1010.36 1010.05 1009.67 1009.26 1008.81
1012.46 1013.09 1013.65 1014.07 1014.28 1014.27 1014.03 1013.63 1013.14 1012.66 1012.29 1012.12 1012.17 1012.46 1012.94 1013.54 1014.18 1014.75 1015.20 1015.48 1015.58 1015.52 1015.35 1015.11 1014.88 1014.68 1014.54 1014.44 1014.38 1014.32 1014.22 1014.07 1013.84 1013.54 1013.19 1012.82 1012.47 1012.15 1011.88 1011.68 1011.52 1011.40 1011.28 1011.13 1010.94 1010.69 1010.38 1010.01 1009.60
1012.22 1012.86 1013.39 1013.77 1013.93 1013.87 1013.59 1013.15 1012.65 1012.18 1011.85 1011.72 1011.84 1012.20 1012.76 1013.45 1014.17 1014.83 1015.37 1015.72 1015.88 1015.87 1015.73 1015.52 1015.28 1015.07 1014.91 1014.79 1014.71 1014.64 1014.54 1014.39 1014.17 1013.90 1013.57 1013.23 1012.89 1012.58 1012.32 1012.12 1011.98 1011.87 1011.77 1011.65 1011.50 1011.29 1011.02 1010.69 1010.30
1011.90 1012.47 1012.93 1013.22 1013.30 1013.17 1012.85 1012.41 1011.93 1011.52 1011.26 1011.22 1011.43 1011.89 1012.53 1013.30 1014.10 1014.83 1015.43 1015.85 1016.08 1016.12 1016.02 1015.84 1015.62 1015.42 1015.25 1015.13 1015.04 1014.96 1014.86 1014.73 1014.54 1014.30 1014.02 1013.71 1013.40 1013.11 1012.87 1012.67 1012.52 1012.40 1012.29 1012.17 1012.02 1011.82 1011.57 1011.25 1010.89
Thickness
5813 5816 5817 5811 5804 5797 5787 5793 5800 5797 5797 5803 5805 5801 5794 5787 5781 5771 5789 5798 5798 5796 5792 5786 5782 5781 5779 5778 5777 5776 5775 5774 5773 5772 5771 5770 5769 5768 5767 5767 5766 5766 5765 5765 5764 5764 5763 5763 5763
5821 5819 5814 5811 5802 5785 5783 5796 5796 5798 5802 5806 5805 5802 5795 5788 5791 5789 5793 5795 5797 5796 5792 5787 5781 5780 5778 5777 5776 5774 5773 5773 5772 5771 5770 5769 5768 5767 5767 5766 5766 5765 5765 5764 5763 5763 5762 5762 5762
5822 5821 5814 5811 5799 5788 5785 5797 5798 5804 5808 5805 5800 5800 5793 5786 5790 5791 5795 5797 5797 5795 5792 5786 5780 5779 5777 5776 5775 5773 5772 5772 5771 5770 5769 5768 5768 5767 5766 5766 5765 5765 5764 5763 5763 5762 5761 5761 5761
5822 5819 5818 5808 5794 5799 5799 5802 5806 5804 5804 5805 5802 5793 5792 5793 5794 5796 5797 5797 5796 5793 5792 5786 5780 5778 5777 5775 5774 5773 5772 5771 5770 5769 5768 5768 5767 5766 5766 5765 5765 5764 5763 5763 5762 5762 5761 5761 5760
5825 5819 5811 5802 5799 5805 5810 5812 5812 5803 5800 5802 5800 5789 5785 5794 5799 5798 5797 5796 5794 5793 5791 5786 5779 5777 5776 5774 5773 5772 5771 5770 5769 5768 5767 5767 5766 5766 5765 5764 5764 5763 5763 5762 5762 5761 5761 5760 5760
5823 5823 5808 5798 5799 5807 5813 5816 5813 5805 5801 5802 5799 5791 5786 5795 5796 5796 5797 5796 5795 5792 5790 5785 5779 5777 5775 5774 5772 5771 5770 5769 5768 5767 5767 5766 5766 5765 5764 5764 5764 5763 5762 5762 5761 5761 5760 5761 5760
5821 5820 5808 5806 5802 5804 5810 5819 5812 5806 5800 5801 5804 5793 5789 5794 5797 5798 5797 5795 5794 5792 5790 5787 5783 5778 5775 5773 5771 5770 5769 5768 5767 5767 5766 5766 5765 5764 5763 5763 5763 5762 5762 5762 5761 5761 5760 5760 5760
5831 5824 5813 5811 5805 5803 5815 5818 5816 5811 5803 5810 5809 5794 5789 5793 5799 5798 5796 5794 5792 5790 5789 5787 5785 5782 5779 5776 5771 5769 5768 5767 5767 5767 5766 5765 5765 5764 5763 5763 5762 5762 5762 5761 5761 5761 5760 5760 5760
5834 5820 5809 5812 5810 5809 5817 5813 5814 5819 5810 5807 5808 5805 5801 5800 5799 5795 5792 5790 5788 5786 5787 5786 5785 5782 5780 5778 5773 5771 5768 5767 5767 5767 5765 5765 5767 5767 5765 5764 5762 5761 5761 5761 5760 5760 5760 5760 5760
5830 5815 5813 5823 5824 5819 5817 5814 5813 5811 5803 5801 5801 5801 5802 5799 5796 5792 5789 5786 5784 5783 5784 5784 5783 5781 5779 5777 5774 5772 5771 5769 5768 5767 5766 5766 5765 5765 5765 5763 5761 5761 5760 5760 5760 5760 5760 5761 5764
5829 5819 5824 5828 5830 5826 5818 5816 5819 5811 5800 5802 5799 5797 5799 5797 5795 5792 5790 5788 5785 5784 5783 5783 5781 5778 5777 5775 5773 5771 5770 5768 5767 5766 5765 5764 5765 5765 5765 5764 5763 5762 5761 5762 5761 5762 5763 5765 5766
5828 5827 5829 5829 5831 5826 5820 5817 5815 5811 5808 5814 5811 5806 5800 5796 5794 5793 5790 5788 5787 5784 5782 5782 5781 5777 5774 5773 5772 5770 5768 5767 5767 5765 5764 5764 5764 5763 5764 5763 5763 5763 5763 5762 5763 5762 5763 5763 5764
5828 5828 5832 5833 5831 5829 5824 5817 5813 5809 5815 5816 5811 5805 5800 5798 5796 5795 5794 5791 5787 5783 5782 5781 5778 5775 5773 5770 5769 5769 5767 5767 5766 5763 5763 5762 5763 5763 5763 5761 5761 5763 5763 5763 5762 5762 5762 5762 5762
5832 5832 5833 5834 5831 5829 5820 5817 5813 5809 5815 5811 5807 5803 5802 5799 5797 5795 5792 5789 5787 5784 5781 5781 5778 5775 5772 5770 5768 5768 5767 5765 5766 5764 5762 5760 5761 5761 5760 5760 5759 5760 5760 5761 5760 5761 5760 5761 5761
5837 5828 5828 5831 5831 5828 5824 5810 5811 5814 5815 5808 5805 5803 5801 5800 5798 5794 5793 5790 5788 5785 5782 5780 5778 5775 5772 5770 5768 5768 5767 5766 5764 5763 5760 5759 5759 5758 5758 5758 5758 5759 5758 5758 5758 5759 5759 5759 5760
5833 5825 5817 5826 5830 5828 5819 5802 5814 5820 5814 5806 5805 5802 5799 5798 5799 5796 5795 5791 5789 5786 5782 5780 5779 5776 5772 5769 5767 5767 5765 5764 5763 5761 5760 5758 5757 5756 5756 5757 5757 5756 5757 5757 5756 5757 5757 5757 5757
5825 5818 5816 5821 5830 5828 5820 5810 5815 5821 5816 5808 5805 5803 5800 5798 5798 5798 5796 5793 5790 5786 5782 5779 5778 5775 5773 5770 5767 5766 5763 5761 5761 5760 5758 5757 5755 5755 5754 5755 5754 5754 5755 5755 5755 5755 5753 5753 5753
5817 5819 5818 5818 5828 5825 5819 5816 5818 5820 5817 5812 5809 5805 5802 5800 5798 5799 5797 5795 5791 5787 5783 5779 5776 5774 5772 5771 5767 5765 5762 5760 5759 5758 5756 5754 5753 5753 5753 5753 5751 5752 5752 5751 5750 5749 5750 5750 5750
5826 5821 5818 5823 5831 5824 5819 5817 5818 5820 5817 5814 5811 5808 5804 5802 5803 5801 5797 5795 5791 5787 5782 5778 5775 5773 5771 5769 5767 5763 5760 5759 5758 5757 5754 5753 5751 5751 5750 5751 5750 5749 5749 5747 5748 5747 5747 5747 5748
5825 5819 5820 5823 5829 5824 5819 5818 5823 5822 5817 5816 5813 5809 5806 5803 5801 5798 5796 5794 5790 5785 5782 5779 5775 5773 5771 5769 5767 5765 5762 5760 5758 5756 5753 5751 5750 5749 5749 5747 5748 5747 5746 5744 5744 5743 5743 5745 5745
5823 5822 5821 5818 5822 5826 5819 5814 5818 5821 5822 5819 5818 5816 5813 5807 5802 5798 5795 5793 5791 5786 5783 5781 5776 5774 5771 5769 5767 5764 5760 5758 5757 5753 5752 5750 5748 5747 5745 5745 5744 5744 5744 5743 5741 5740 5739 5739 5741
5819 5832 5827 5821 5815 5815 5816 5801 5814 5819 5816 5816 5817 5817 5815 5812 5808 5802 5798 5794 5792 5788 5786 5781 5777 5773 5771 5768 5766 5762 5758 5755 5754 5753 5751 5749 5747 5745 5744 5743 5741 5740 5741 5739 5739 5739 5738 5735 5735
5826 5834 5828 5823 5818 5814 5817 5808 5814 5821 5813 5817 5819 5819 5818 5815 5810 5805 5801 5797 5794 5791 5787 5782 5777 5772 5770 5767 5764 5761 5758 5756 5754 5751 5748 5747 5745 5743 5742 5741 5739 5738 5738 5737 5735 5735 5734 5733 5731
5832 5827 5823 5822 5819 5799 5811 5806 5807 5821 5818 5820 5822 5821 5819 5817 5812 5807 5804 5800 5796 5793 5788 5783 5776 5771 5768 5765 5763 5759 5756 5753 5750 5747 5745 5745 5744 5742 5741 5739 5736 5735 5734 5732 5731 5731 5730 5729 5728
5827 5815 5800 5797 5798 5800 5816 5806 5810 5826 5829 5827 5823 5821 5820 5817 5812 5806 5802 5798 5794 5790 5787 5782 5776 5770 5768 5764 5761 5759 5755 5752 5748 5747 5745 5743 5742 5741 5738 5737 5734 5732 5730 5729 5728 5727 5726 5725 5724
5825 5821 5798 5784 5789 5806 5810 5804 5819 5831 5832 5831 5828 5825 5821 5816 5813 5807 5803 5799 5794 5790 5786 5782 5775 5770 5767 5764 5760 5757 5754 5753 5750 5746 5745 5742 5741 5739 5736 5733 5731 5729 5727 5726 5725 5725 5724 5722 5721
5821 5820 5831 5814 5807 5800 5808 5813 5820 5828 5825 5824 5822 5820 5817 5815 5812 5808 5804 5800 5795 5791 5786 5782 5775 5771 5767 5764 5759 5756 5753 5750 5747 5744 5742 5741 5738 5737 5734 5732 5729 5727 5725 5723 5722 5721 5719 5718 5718
5832 5831 5820 5809 5785 5782 5797 5804 5809 5813 5816 5818 5817 5816 5815 5814 5811 5808 5804 5801 5797 5793 5787 5782 5777 5771 5767 5763 5759 5756 5752 5748 5745 5743 5739 5737 5735 5733 5731 5730 5727 5725 5723 5721 5719 5718 5716 5715 5714
5817 5817 5814 5813 5808 5789 5783 5800 5826 5821 5820 5818 5818 5817 5815 5813 5810 5807 5804 5801 5797 5792 5787 5781 5776 5770 5766 5762 5758 5754 5750 5747 5744 5740 5738 5735 5732 5730 5728 5726 5724 5722 5720 5718 5715 5715 5713 5711 5710
5827 5823 5817 5799 5794 5800 5795 5803 5832 5828 5827 5823 5818 5815 5815 5812 5810 5806 5802 5798 5794 5790 5786 5780 5775 5770 5765 5761 5756 5751 5747 5744 5742 5739 5736 5734 5731 5728 5726 5723 5720 5718 5716 5714 5712 5710 5709 5706 5705